This demonstration page uses our WeatherBlox Daily Observations layout. Learn more.

Left ArrowRight Arrow

Hourly Observations for September 29, 2020

Temp ( °F °C ) Dew Point ( °F °C ) Humidity (%) Winds ( mph kmh ) Pressure ( in mb ) Visibility ( mi km ) Precip ( " mm )
12:15 am 00:15 Cloudy 70 21 66 19 88 88 S 8 13 29.86 1011 10 16 0.00 0.00
12:35 am 00:35 Cloudy 70 21 66 19 88 88 S 8 13 29.85 1011 10 16 0.00 0.00
12:55 am 00:55 Cloudy 68 20 66 19 94 94 S 9 15 29.85 1011 10 16 0.00 0.00
1:15 am 01:15 Cloudy 68 20 66 19 94 94 S 8 13 29.84 1011 10 16 0.00 0.00
1:35 am 01:35 Cloudy 68 20 66 19 94 94 S 7 11 29.84 1011 10 16 0.00 0.00
1:55 am 01:55 Cloudy 68 20 66 19 94 94 SSE 8 13 29.84 1011 10 16 0.00 0.00
2:15 am 02:15 Cloudy 68 20 66 19 94 94 S 9 15 29.84 1011 10 16 0.00 0.00
2:35 am 02:35 Cloudy 68 20 66 19 94 94 S 8 13 29.84 1011 10 16 0.00 0.00
2:55 am 02:55 Cloudy 68 20 64 18 88 88 S 8 13 29.83 1010 10 16 0.00 0.00
3:15 am 03:15 Cloudy 68 20 64 18 88 88 S 8 13 29.83 1010 10 16 0.00 0.00
3:35 am 03:35 Cloudy 68 20 64 18 88 88 S 9 15 29.83 1010 10 16 0.00 0.00
3:55 am 03:55 Mostly Cloudy 66 19 64 18 94 94 S 9 15 29.82 1010 10 16 0.00 0.00
4:15 am 04:15 Partly Cloudy 64 18 64 18 100 100 S 7 11 29.82 1010 10 16 0.00 0.00
4:35 am 04:35 Partly Cloudy 64 18 64 18 100 100 S 7 11 29.82 1010 10 16 0.00 0.00
4:55 am 04:55 Partly Cloudy 64 18 64 18 100 100 S 7 11 29.82 1010 10 16 0.00 0.00
5:15 am 05:15 Cloudy 64 18 64 18 100 100 S 5 7 29.82 1010 10 16 0.00 0.00
5:35 am 05:35 Cloudy 64 18 64 18 100 100 S 8 13 29.82 1010 10 16 0.00 0.00
5:55 am 05:55 Cloudy 64 18 64 18 100 100 S 9 15 29.82 1010 10 16 0.00 0.00
6:15 am 06:15 Mostly Cloudy 64 18 64 18 100 100 S 8 13 29.82 1010 10 16 0.00 0.00
6:35 am 06:35 Cloudy 63 17 63 17 100 100 SSW 6 9 29.84 1010 10 16 0.00 0.00
6:55 am 06:55 Cloudy 63 17 63 17 100 100 S 8 13 29.84 1010 10 16 0.00 0.00
7:15 am 07:15 Cloudy 63 17 63 17 100 100 S 8 13 29.85 1011 10 16 0.00 0.00
7:35 am 07:35 Cloudy 63 17 63 17 100 100 S 7 11 29.85 1011 10 16 0.00 0.00
7:55 am 07:55 Cloudy 63 17 63 17 100 100 SW 6 9 29.86 1011 10 16 0.00 0.00
8:15 am 08:15 Cloudy 63 17 63 17 100 100 S 7 11 29.87 1011 10 16 0.00 0.00
8:35 am 08:35 Cloudy 63 17 63 17 100 100 S 6 9 29.87 1011 10 16 0.00 0.00
8:55 am 08:55 Cloudy 64 18 63 17 94 94 S 5 7 29.86 1011 10 16 0.00 0.00
9:15 am 09:15 Cloudy 64 18 63 17 94 94 S 6 9 29.85 1011 10 16 0.00 0.00
9:35 am 09:35 Cloudy 64 18 64 18 100 100 W 5 7 29.86 1011 10 16 0.00 0.00
9:55 am 09:55 Cloudy 64 18 63 17 94 94 Calm 29.86 1011 10 16 0.00 0.00
10:15 am 10:15 Cloudy 64 18 63 17 94 94 Calm 29.85 1011 10 16 0.00 0.00
10:35 am 10:35 Cloudy 64 18 63 17 94 94 Calm 29.85 1011 10 16 0.00 0.00
10:55 am 10:55 Cloudy 64 18 61 16 88 88 NNW 6 9 29.86 1011 10 16 0.00 0.00
11:15 am 11:15 Cloudy 64 18 59 15 83 83 N 6 9 29.86 1011 7 11 0.00 0.00
11:35 am 11:35 Cloudy 66 19 59 15 78 78 N 5 7 29.85 1011 10 16 0.00 0.00
11:55 am 11:55 Cloudy 66 19 59 15 78 78 N 6 9 29.84 1011 10 16 0.00 0.00
12:15 pm 12:15 Cloudy 66 19 59 15 78 78 N 7 11 29.84 1011 10 16 0.00 0.00
12:35 pm 12:35 Cloudy 66 19 61 16 83 83 NNW 6 9 29.85 1011 10 16 0.00 0.00
12:55 pm 12:55 Cloudy 66 19 59 15 78 78 NNW 6 9 29.84 1011 10 16 0.00 0.00
1:15 pm 13:15 Cloudy 66 19 59 15 78 78 NNW 8 13 29.83 1010 10 16 0.00 0.00
1:35 pm 13:35 Cloudy 68 20 59 15 73 73 N 8 13 29.82 1010 10 16 0.00 0.00
1:55 pm 13:55 Cloudy 66 19 59 15 78 78 NNW 12 19 29.81 1010 10 16 0.00 0.00
2:15 pm 14:15 Cloudy 64 18 59 15 83 83 NNW 10 17 29.80 1009 10 16 0.00 0.00
2:35 pm 14:35 Cloudy 64 18 59 15 83 83 N 12 19 29.79 1009 10 16 0.00 0.00
2:55 pm 14:55 Cloudy 64 18 57 14 78 78 NNW 15 24 29.79 1009 10 16 0.00 0.00
3:15 pm 15:15 Cloudy 63 17 57 14 83 83 NW 9 15 29.81 1009 10 16 0.00 0.00
3:35 pm 15:35 Cloudy 61 16 57 14 88 88 NW 14 22 29.80 1009 7 11 0.00 0.00
3:55 pm 15:55 Cloudy 59 15 55 13 88 88 NNW 15 24 29.80 1009 10 16 0.00 0.00
4:15 pm 16:15 Cloudy 59 15 55 13 88 88 NNW 13 20 29.79 1009 10 16 0.00 0.00
4:35 pm 16:35 Cloudy 59 15 55 13 88 88 N 14 22 29.79 1009 10 16 0.00 0.00
4:55 pm 16:55 Cloudy 59 15 55 13 88 88 N 7 11 29.78 1008 10 16 0.00 0.00
5:15 pm 17:15 Cloudy 59 15 55 13 88 88 N 13 20 29.77 1008 10 16 0.00 0.00
5:35 pm 17:35 Cloudy 59 15 55 13 88 88 N 12 19 29.77 1008 10 16 0.00 0.00
5:55 pm 17:55 Cloudy 59 15 55 13 88 88 N 7 11 29.77 1008 10 16 0.00 0.00
6:15 pm 18:15 Cloudy 59 15 55 13 88 88 NNW 13 20 29.79 1009 10 16 0.00 0.00
6:35 pm 18:35 Cloudy 57 14 55 13 94 94 NNW 16 26 29.79 1009 10 16 0.00 0.00
6:55 pm 18:55 Cloudy 55 13 55 13 100 100 NNW 12 19 29.80 1009 10 16 0.00 0.00
7:15 pm 19:15 Cloudy 55 13 54 12 94 94 N 18 30 29.80 1009 10 16 0.00 0.00
7:35 pm 19:35 Cloudy 54 12 52 11 94 94 NNW 14 22 29.79 1009 10 16 0.00 0.00
7:55 pm 19:55 Cloudy 54 12 52 11 94 94 N 16 26 29.79 1009 10 16 0.00 0.00
8:15 pm 20:15 Cloudy 52 11 52 11 100 100 N 14 22 29.78 1009 10 16 0.00 0.00
8:35 pm 20:35 Cloudy 52 11 52 11 100 100 NNW 14 22 29.80 1009 7 11 0.00 0.00
8:55 pm 20:55 Cloudy 52 11 52 11 100 100 NNW 15 24 29.78 1009 7 11 0.00 0.00
9:15 pm 21:15 Cloudy 52 11 52 11 100 100 NNW 15 24 29.79 1009 10 16 0.00 0.00
9:35 pm 21:35 Cloudy 52 11 52 11 100 100 N 14 22 29.77 1008 10 16 0.00 0.00
9:55 pm 21:55 Cloudy 52 11 52 11 100 100 NW 10 17 29.79 1009 10 16 0.00 0.00
10:15 pm 22:15 Cloudy 52 11 52 11 100 100 N 12 19 29.78 1009 7 11 0.00 0.00
10:35 pm 22:35 Cloudy 52 11 52 11 100 100 N 10 17 29.76 1008 7 11 0.00 0.00
10:55 pm 22:55 Cloudy 52 11 52 11 100 100 N 7 11 29.75 1008 10 16 0.00 0.00
11:15 pm 23:15 Cloudy 50 10 50 10 100 100 N 8 13 29.77 1008 10 16 0.00 0.00
11:35 pm 23:35 Cloudy 50 10 50 10 100 100 NNW 7 11 29.76 1008 7 11 0.00 0.00
11:55 pm 23:55 Cloudy 50 10 50 10 100 100 N 6 9 29.74 1007 10 16 0.00 0.00

Powered by AerisWeather